Flight Track Log - Related Links

Times and Time Zones

All times are in EDT time to prevent confusion due to time zone crossing. See the SWA59 flight status page for this flight to view local times or setup timezone preferences in your user account.

Time Position Orientation Groundspeed Altitude Reporting Facility
EDT Latitude Longitude Course Direction KTS MPH feet Rate Location/Type
Fri 08:11:47 PM 38.7333 -90.3333 113° Southeast 147 169 1,300  Level Gateway (St. Louis) TRACON
Fri 08:12:47 PM 38.7167 -90.2833 113° Southeast 208 239 3,300 1,820 Climbing Gateway (St. Louis) TRACON
Fri 08:13:16 PM 38.6981 -90.2633 140° Southeast 208 239 4,000 2,258 Climbing Kansas City Center
Fri 08:14:20 PM 38.6175 -90.2436 169° South 242 278 6,800 1,728 Climbing Kansas City Center
Fri 08:15:21 PM 38.5644 -90.3078 223° Southwest 258 297 7,600 1,918 Climbing Kansas City Center
Fri 08:16:22 PM 38.5144 -90.3906 232° Southwest 273 314 10,700 3,836 Climbing Kansas City Center
Fri 08:17:23 PM 38.4553 -90.4789 229° Southwest 314 361 15,400 3,696 Climbing Kansas City Center
Fri 08:18:27 PM 38.4039 -90.5597 231° Southwest 298 343 18,400 2,710 Climbing Kansas City Center
Fri 08:19:27 PM 38.3478 -90.6453 230° Southwest 313 360 21,000 2,529 Climbing Kansas City Center
Fri 08:20:28 PM 38.2886 -90.7350 230° Southwest 328 377 23,500 2,274 Climbing Kansas City Center
Fri 08:21:31 PM 38.2264 -90.8256 229° Southwest 338 389 25,700 2,177 Climbing Kansas City Center
Fri 08:22:32 PM 38.1542 -90.9142 224° Southwest 357 411 28,000 2,410 Climbing Kansas City Center
Fri 08:23:33 PM 38.0861 -91.0025 226° Southwest 352 405 30,600 2,496 Climbing Kansas City Center
Fri 08:24:37 PM 38.0067 -91.1011 224° Southwest 342 394 33,200 1,440 Climbing Kansas City Center
Fri 08:25:38 PM 37.9408 -91.1872 226° Southwest 338 389 33,600 443 Climbing Kansas City Center
Fri 08:26:39 PM 37.8681 -91.2819 226° Southwest 355 409 34,100 885 Climbing Kansas City Center
Fri 08:27:40 PM 37.7875 -91.3822 225° Southwest 377 434 35,400 1,623 Climbing Kansas City Center
Fri 08:28:41 PM 37.7083 -91.4819 225° Southwest 390 449 37,400 1,279 Climbing Kansas City Center
Fri 08:29:42 PM 37.6308 -91.5800 225° Southwest 393 452 38,000 290 Climbing Kansas City Center
Fri 08:30:45 PM 37.5511 -91.6783 224° Southwest 395 455 38,000  Level Kansas City Center
Fri 08:31:47 PM 37.4736 -91.7769 225° Southwest 394 453 38,000  Level Kansas City Center
Fri 08:32:47 PM 37.3958 -91.8739 225° Southwest 391 450 38,000  Level Kansas City Center
Fri 08:33:48 PM 37.3175 -91.9706 224° Southwest 391 450 38,000  Level Kansas City Center
Fri 08:34:50 PM 37.2233 -92.0883 225° Southwest 394 453 38,000  Level Kansas City Center
Fri 08:35:54 PM 37.1439 -92.1847 224° Southwest 395 455 38,000  Level Kansas City Center
Fri 08:36:55 PM 37.0656 -92.2819 225° Southwest 394 453 38,000  Level Kansas City Center
Fri 08:37:56 PM 36.9847 -92.3797 224° Southwest 396 456 38,000  Level Kansas City Center
Fri 08:38:57 PM 36.9047 -92.4775 224° Southwest 399 459 38,000  Level Kansas City Center
Fri 08:39:45 PM 36.8419 -92.5528 224° Southwest 404 465 38,000  Level Memphis Center
Fri 08:40:45 PM 36.7650 -92.6517 226° Southwest 404 465 38,000  Level Memphis Center
Fri 08:41:45 PM 36.6861 -92.7503 225° Southwest 404 465 38,000  Level Memphis Center
Fri 08:42:45 PM 36.6008 -92.8511 224° Southwest 397 457 38,000  Level Memphis Center
Fri 08:43:45 PM 36.5217 -92.9442 223° Southwest 397 457 38,000  Level Memphis Center
Fri 08:44:45 PM 36.4492 -93.0269 223° Southwest 397 457 38,000  Level Memphis Center
Fri 08:45:45 PM 36.3697 -93.1225 224° Southwest 397 457 38,000  Level Memphis Center
Fri 08:46:45 PM 36.2864 -93.2200 223° Southwest 403 464 38,000  Level Memphis Center
Fri 08:47:45 PM 36.2092 -93.3125 224° Southwest 403 464 38,000  Level Memphis Center
Fri 08:48:45 PM 36.1278 -93.4072 223° Southwest 403 464 38,000  Level Memphis Center
Fri 08:49:45 PM 36.0481 -93.5017 224° Southwest 403 464 38,000  Level Memphis Center
Fri 08:50:45 PM 35.9686 -93.5961 224° Southwest 403 464 38,000  Level Memphis Center
Fri 08:51:45 PM 35.8889 -93.6906 224° Southwest 403 464 38,000  Level Memphis Center
Fri 08:52:45 PM 35.8114 -93.7819 224° Southwest 403 464 38,000  Level Memphis Center
Fri 08:53:45 PM 35.7317 -93.8708 222° Southwest 397 457 38,000  Level Memphis Center
Fri 08:54:45 PM 35.6542 -93.9619 224° Southwest 392 451 38,000  Level Memphis Center
Fri 08:55:45 PM 35.5742 -94.0531 223° Southwest 392 451 38,000  Level Memphis Center
Fri 08:56:45 PM 35.4983 -94.1467 225° Southwest 392 451 38,000  Level Memphis Center
Fri 08:57:45 PM 35.4186 -94.2347 222° Southwest 392 451 38,000  Level Memphis Center
Fri 08:58:45 PM 35.3386 -94.3225 222° Southwest 392 451 38,000  Level Memphis Center
Fri 08:59:45 PM 35.2606 -94.4131 223° Southwest 387 445 38,000  Level Memphis Center
Fri 09:00:45 PM 35.1808 -94.4956 220° Southwest 387 445 38,000  Level Memphis Center
Fri 09:02:19 PM 35.0483 -94.6442 223° Southwest 376 433 38,000  Level Fort Worth Center
Fri 09:03:19 PM 34.9689 -94.7331 223° Southwest 383 441 38,000  Level Fort Worth Center
Fri 09:04:19 PM 34.8850 -94.8164 219° Southwest 388 447 38,000  Level Fort Worth Center
Fri 09:05:19 PM 34.8094 -94.8872 218° Southwest 388 447 38,000 -50 Level Fort Worth Center
Fri 09:06:19 PM 34.7233 -94.9681 218° Southwest 394 453 37,900 -1,350 Descending Fort Worth Center
Fri 09:07:19 PM 34.6394 -95.0486 218° Southwest 389 448 35,300 -2,350 Descending Fort Worth Center
Fri 09:08:19 PM 34.5553 -95.1292 218° Southwest 389 448 33,200 -2,050 Descending Fort Worth Center
Fri 09:09:19 PM 34.4775 -95.2042 218° Southwest 382 440 31,200 -1,950 Descending Fort Worth Center
Fri 09:10:19 PM 34.4014 -95.2742 217° Southwest 370 426 29,300 -1,900 Descending Fort Worth Center
Fri 09:11:19 PM 34.3275 -95.3464 219° Southwest 356 410 27,400 -1,850 Descending Fort Worth Center
Fri 09:12:19 PM 34.2514 -95.4161 217° Southwest 351 404 25,600 -1,700 Descending Fort Worth Center
Fri 09:13:19 PM 34.1794 -95.4831 218° Southwest 345 397 24,000 -800 Descending Fort Worth Center
Fri 09:14:19 PM 34.1094 -95.5497 218° Southwest 345 397 24,000  Level Fort Worth Center
Fri 09:15:19 PM 34.0375 -95.6164 218° Southwest 330 380 24,000  Level Fort Worth Center
Fri 09:16:19 PM 33.9675 -95.6831 218° Southwest 330 380 24,000  Level Fort Worth Center
Fri 09:17:19 PM 33.8953 -95.7519 218° Southwest 330 380 24,000 -550 Level Fort Worth Center
Fri 09:18:19 PM 33.8253 -95.8183 218° Southwest 330 380 22,900 -1,450 Descending Fort Worth Center
Fri 09:19:19 PM 33.7489 -95.8897 218° Southwest 330 380 21,100 -1,750 Descending Fort Worth Center
Fri 09:20:19 PM 33.6889 -95.9431 216° Southwest 311 358 19,400 -1,650 Descending Fort Worth Center
Fri 09:21:19 PM 33.6186 -96.0067 217° Southwest 296 341 17,800 -1,600 Descending Fort Worth Center
Fri 09:22:19 PM 33.5631 -96.0597 219° Southwest 291 335 16,200 -1,650 Descending Fort Worth Center
Fri 09:23:19 PM 33.4928 -96.1233 217° Southwest 296 341 14,500 -1,650 Descending Fort Worth Center
Fri 09:24:19 PM 33.4389 -96.1739 218° Southwest 290 334 12,900 -1,650 Descending Fort Worth Center
Fri 09:25:19 PM 33.3706 -96.2369 218° Southwest 290 334 11,200 -1,400 Descending Fort Worth Center
Fri 09:26:19 PM 33.3167 -96.2847 217° Southwest 290 334 10,100 -1,150 Descending Fort Worth Center
Fri 09:27:19 PM 33.2547 -96.3478 220° Southwest 279 321 8,900 -1,350 Descending Fort Worth Center
Fri 09:28:19 PM 33.2156 -96.4103 233° Southwest 273 314 7,400 -1,250 Descending Fort Worth Center
Fri 09:29:19 PM 33.1681 -96.4853 233° Southwest 262 302 6,400 -1,150 Descending Fort Worth Center
Fri 09:30:19 PM 33.1350 -96.5403 234° Southwest 243 280 5,100 -1,150 Descending Fort Worth Center
Fri 09:31:19 PM 33.0981 -96.6025 235° Southwest 243 280 4,100 -1,050 Descending Fort Worth Center
Fri 09:32:19 PM 33.0586 -96.6672 234° Southwest 236 272 3,000 -500 Descending Fort Worth Center
Fri 09:33:19 PM 33.0278 -96.7147 232° Southwest 220 253 3,100 53 Climbing Fort Worth Center
Fri 09:34:12 PM 33.0000 -96.7667 237° Southwest 200 230 3,100  Level Dallas / Fort Worth TRACON
Fri 09:35:13 PM 32.9667 -96.8167 232° Southwest 198 228 3,100 -443 Level Dallas / Fort Worth TRACON
Fri 09:36:14 PM 32.9333 -96.8833 239° Southwest 177 204 2,200 -645 Descending Dallas / Fort Worth TRACON
Fri 09:37:14 PM 32.9000 -96.9000 203° Southwest 127 146 1,800 -545 Descending Dallas / Fort Worth TRACON
Fri 09:38:15 PM 32.8667 -96.8833 157° South 130 150 1,100 -689 Descending Dallas / Fort Worth TRACON
Fri 09:40:00 PM 32.8471 -96.8518 228° Southwest  Level Estimated
Fri 09:47:00 PM 32.8471 -96.8518 228° Southwest  Level Estimated

Login

Don't have an account? Register now (free) for customized features, flight alerts, and more!